{"data":{"norad_id":60520,"intl_designator":"2024-149BE","name":"IPERDRONE.0","alt_names":[],"object_type":"PAYLOAD","status":"ACTIVE","operator":null,"country":"IT","launch_date":"2024-08-16","launch_site_code":"AFWTR","launch_vehicle":null,"mission":null,"orbit_class":"UNKNOWN","rcs_meters":null,"size_class":null,"mass_kg":null,"dimensions":null,"purposes":[],"wikipedia_slug":null,"has_3d_model":false,"image_url":null,"decayed_at":null,"tle_current":{"epoch":"2026-05-25T03:49:42.324960Z","epoch_age_seconds":54492,"freshness":"FRESH","line1":"1 60520U 24149BE  26145.15951765  .00066801  00000+0  72921-3 0  9994","line2":"2 60520  97.3772 237.2959 0001121 308.7047  51.4111 15.63150510 99313","mean_motion":15.6315051,"eccentricity":0.0001121,"inclination_deg":97.3772,"raan_deg":237.2959,"arg_perigee_deg":308.7047,"mean_anomaly_deg":51.4111,"bstar":0.00072921,"rev_number":9931,"period_min":92.121647326207,"perigee_km":377.80568347797,"apogee_km":379.32053564253,"semimajor_km":6756.7001095602,"source":"CELESTRAK","updated_at":"2026-05-25T13:38:02.123361Z"}}}